THORAD AGENA D DEB, 4603

Orbit data source: Space-Track

THORAD AGENA D DEB, 4603 is space debris in SSO originally from a launch on Wed, 08 Apr 1970 UTC launched from the Air Force Western Test Range (AFWTR). Debris objects in space refer to the collection of defunct objects orbiting the Earth. Examples of debris include non-operational satellites, rocket bodies, and fragments generated from explosions, collisions, or faulty payload assembly.

Loading next visibility...
Identifier
4603, 1970-025F
Orbit
SSO
Country
Flag of USUS
Related business
Manufacturer
Unknown
Mission
Spacecraft
Bus & Motor
Unknown
Mass
Unknown
Launch date (UTC)
1970-04-08 (56 years ago)
Launch vehicle
Unknown
Launch site
Air Force Western Test Range (AFWTR)
Object type
Payload
Rocket body
Debris
Shape & HBR
Unknown shape, 0.2 m
Radar Cross Section
Small (<0.1 m²)

Expand to show TLE details & history
Last TLE update: 14 hours ago

TLE from 14 hours ago
0 THORAD AGENA D DEB
1  4603U 70025F   26132.52808644  .00000609  00000-0  55152-3 0  9994
2  4603  99.5025 237.4707 0018322 348.6231  27.4410 13.87785518787865
Epoch: 2026-05-12T12:40Z
TLE epoch observation values (Epoch: 2026-05-12T12:40:26.668Z)
Latitude
15.91488°
Longitude
174.33705°
Altitude
926.688 km
Speed
7.396 km/s
True Right ascension
15h 38m 59s
True Declination
15° 49' 36"
Sunlit
Object was in full shadow at epoch
Visualization orbit readout
Latitude
Unknown
Longitude
Unknown
Altitude
Unknown
Speed
Unknown
Apparent Right ascension
Unknown
Apparent Declination
Unknown
Sunlit
N/A
Visualization observer readout
Local Sidereal Time
11:02:08
Azimuth
Unknown
Elevation
Unknown
Doppler factor
Unknown
Orbital elements
Apogee altitude
947.039 km
Perigee altitude
920.246 km
Semi-major axis
7,311.78 km
Eccentricity
0.00183
Inclination
99.5025°
RAAN
237.4707°
Arg. of periapsis
348.6231°
True anomaly
27.53795°
Mean anomaly
27.441°
Eccentric anomaly
27.48946°
Mean motion
3.47143 °/min
Orbital period
103.7 mins
BSTAR
0.00055152

Documentation

Showing up to 5 results
|